Regional Weather Roundup
Issued by NWS

Home | Current Version | Previous Version | Text Only | Print | Product List | Glossary Off
Versions: 1 2 3 4 5 6 7 8 9 10 11 12 13 14 15 16 17 18 19 20 21 22 23 24 25 26 27 28 29 30 31 32 33 34 35 36 37 38 39 40 41 42 43 44 45 46 47 48 49 50

000
ASUS43 KLMK 312310
RWRKY
KENTUCKY REGIONAL WEATHER ROUNDUP
NATIONAL WEATHER SERVICE LOUISVILLE KY
700 PM EDT FRI JUL 31 2015

NOTE "FAIR" INDICATES FEW OR NO CLOUDS BELOW 12,000 FEET
WITH NO SIGNIFICANT WEATHER AND/OR OBSTRUCTIONS TO VISIBILITY.

KYZ001>023-026-027-061>063-070>075-010000-
WESTERN AND SOUTH CENTRAL KENTUCKY

CITY           SKY/WX    TMP DP  RH WIND       PRES   REMARKS
PADUCAH        SUNNY     89  66  46 NW5       30.02F HX  91
HENDERSON      SUNNY     88  70  55 W6        30.00S HX  92
OWENSBORO      SUNNY     88  64  44 NW7       30.01F
HOPKINSVILLE   SUNNY     86  66  51 NW6       30.02F
BOWLING GREEN  SUNNY     88  60  38 N6        30.01F
GLASGOW        SUNNY    N/A N/A N/A NW3       30.01F
$$

KYZ024-025-028>034-038-045-046-053-010000-
NORTH CENTRAL KENTUCKY

CITY           SKY/WX    TMP DP  RH WIND       PRES   REMARKS
LOUISVILLE/SDF MOSUNNY   88  55  32 NW12      29.98F
LOUISVILLE/LOU SUNNY     89  56  32 NW13      29.99F
FORT KNOX      SUNNY     85  62  45 W6        29.99F
$$

KYZ035>037-039>044-047>052-055>060-089>105-010000-
NORTHEAST KENTUCKY

CITY           SKY/WX    TMP DP  RH WIND       PRES   REMARKS
LEXINGTON      SUNNY     84  60  44 NW7       30.00F
COVINGTON      MOSUNNY   85  61  44 W7        29.97F
FRANKFORT      SUNNY     85  57  38 NW6       29.99F
$$

KYZ054-064>069-076>088-106>120-010000-
SOUTHEAST KENTUCKY

CITY           SKY/WX    TMP DP  RH WIND       PRES   REMARKS
JACKSON        SUNNY     82  61  48 CALM      30.01F
LONDON         MOSUNNY   84  55  36 NW7       30.02F
SOMERSET       SUNNY     82  54  36 NW6       30.03S
MIDDLESBORO    SUNNY     83  60  46 N3        30.02S
MONTICELLO     CLEAR     85  66  52 CALM      30.05S
$$



USA.gov is the U.S. government's official web portal to all federal, state and local government web resources and services.